Total_Precipitation_Accumulation
0.93 1.14 1.39 1.06 0.74 0.74 0.82 0.82 0.80 0.69 0.66 0.71 0.76 0.69 0.68 0.72 0.69 0.70 0.69 0.76 0.88 0.97 0.92 0.89 0.82 0.80 0.79 0.73 0.74 0.64 0.58 0.58 0.64 0.70 0.75 0.74 0.82 1.07 1.37 1.45 1.51 1.00 0.98
0.66 0.85 1.16 0.96 0.67 0.65 0.71 0.73 0.71 0.69 0.66 0.69 0.75 0.74 0.80 0.82 0.74 0.70 0.78 0.83 0.86 0.88 0.77 0.67 0.64 0.63 0.63 0.59 0.53 0.48 0.55 0.68 0.79 0.97 0.96 0.81 0.85 1.08 1.30 1.33 1.47 0.92 0.86
0.54 0.61 0.70 0.77 0.65 0.61 0.68 0.72 0.73 0.78 0.77 0.76 0.75 0.78 0.82 0.82 0.78 0.80 0.80 0.75 0.74 0.75 0.65 0.59 0.55 0.49 0.48 0.48 0.48 0.51 0.66 0.86 1.11 1.26 1.37 0.86 0.64 1.00 1.11 1.10 1.01 0.85 0.83
0.51 0.47 0.43 0.57 0.59 0.59 0.67 0.73 0.87 0.87 0.81 0.74 0.76 0.75 0.76 0.85 0.83 0.75 0.67 0.65 0.69 0.63 0.57 0.51 0.47 0.41 0.40 0.39 0.46 0.60 0.79 0.95 1.16 1.53 1.47 0.75 0.46 0.69 0.86 0.89 0.82 0.79 0.73
0.44 0.45 0.50 0.57 0.56 0.62 0.68 0.75 0.82 0.74 0.67 0.68 0.71 0.70 0.75 0.78 0.74 0.68 0.63 0.60 0.63 0.57 0.50 0.44 0.42 0.40 0.40 0.42 0.51 0.67 0.82 0.93 1.26 1.40 0.94 0.82 0.79 0.79 0.75 0.83 0.86 0.77 0.63
0.37 0.42 0.46 0.52 0.56 0.59 0.59 0.62 0.69 0.69 0.61 0.63 0.64 0.67 0.69 0.69 0.71 0.64 0.56 0.54 0.55 0.53 0.48 0.46 0.42 0.41 0.43 0.48 0.55 0.66 0.83 1.06 1.18 0.79 0.66 0.63 0.67 0.80 0.76 0.93 1.02 0.85 0.69
0.39 0.44 0.46 0.57 0.62 0.59 0.55 0.57 0.57 0.60 0.61 0.63 0.62 0.60 0.60 0.58 0.61 0.57 0.50 0.47 0.48 0.45 0.43 0.45 0.43 0.46 0.49 0.53 0.59 0.68 0.87 1.18 0.93 0.61 0.64 0.70 0.67 0.70 0.83 1.06 1.24 1.07 0.85
0.57 0.59 0.58 0.66 0.66 0.63 0.59 0.60 0.56 0.55 0.56 0.52 0.51 0.51 0.50 0.46 0.50 0.55 0.55 0.45 0.42 0.42 0.40 0.40 0.41 0.48 0.55 0.60 0.67 0.72 0.88 0.93 0.56 0.50 0.48 0.55 0.52 0.58 0.82 1.06 1.23 1.17 1.05
0.84 0.73 0.69 0.77 0.78 0.72 0.79 0.71 0.63 0.56 0.54 0.52 0.50 0.52 0.50 0.45 0.43 0.46 0.55 0.51 0.43 0.47 0.46 0.45 0.46 0.52 0.57 0.63 0.66 0.73 0.86 0.87 0.64 0.61 0.50 0.51 0.53 0.72 1.05 1.21 1.20 1.17 1.14
1.30 1.08 0.94 0.88 0.81 0.77 0.76 0.75 0.70 0.63 0.57 0.57 0.55 0.50 0.53 0.52 0.48 0.52 0.51 0.54 0.53 0.58 0.63 0.60 0.61 0.62 0.62 0.62 0.68 0.77 0.82 0.76 0.72 0.68 0.58 0.47 0.59 0.88 1.21 1.34 1.35 1.28 1.19
1.58 1.42 1.17 0.98 0.91 0.90 0.78 0.72 0.80 0.77 0.72 0.71 0.70 0.66 0.78 0.89 0.77 0.82 0.71 0.81 0.80 0.82 0.86 0.91 0.96 0.92 0.86 0.76 0.88 0.97 0.86 0.86 0.89 0.80 0.62 0.51 0.70 0.98 1.27 1.40 1.40 1.38 1.28
1.83 1.56 1.36 1.18 1.00 0.89 0.78 0.89 1.12 0.94 0.94 1.02 1.08 1.09 1.29 1.49 1.46 0.96 0.98 1.25 1.32 1.39 1.37 1.42 1.49 1.26 1.08 1.03 1.46 1.63 1.03 0.97 1.01 0.93 0.79 0.79 1.03 1.27 1.53 1.47 1.38 1.41 1.30
2.13 1.86 1.63 1.37 1.13 1.01 1.07 0.97 1.11 1.28 1.36 1.37 1.37 1.38 1.54 1.44 1.24 1.09 1.21 1.47 1.70 1.76 1.67 1.86 1.95 1.63 1.67 1.92 1.92 1.72 1.25 1.33 1.34 1.26 1.11 1.20 1.43 1.72 2.09 1.88 1.56 1.41 1.35
2.26 2.12 2.07 1.67 1.47 1.56 1.41 1.14 1.05 1.09 1.22 1.40 1.62 1.58 1.66 1.86 1.76 1.69 1.76 1.80 1.91 2.09 2.36 2.28 2.46 2.33 2.27 2.16 2.12 1.98 1.73 1.75 1.71 1.82 1.73 1.55 1.64 1.92 2.42 2.40 1.94 1.63 1.44
2.26 2.27 2.26 2.08 1.89 1.95 1.75 1.55 1.32 1.43 1.45 1.51 1.64 1.79 1.73 1.97 2.16 2.14 2.10 2.06 1.94 2.01 2.16 2.36 2.41 2.77 2.91 2.53 2.14 2.00 1.98 2.04 1.96 1.92 1.83 1.74 1.67 1.83 2.24 2.50 2.37 2.11 1.80
2.54 2.58 2.39 2.30 2.30 2.28 2.20 2.16 2.05 1.80 1.86 1.78 1.73 1.73 1.78 2.02 2.29 2.41 2.27 2.24 2.09 2.05 2.19 2.36 2.52 3.02 3.04 2.84 2.41 2.16 2.07 2.02 1.85 1.76 1.84 2.04 1.88 1.78 1.92 2.24 2.47 2.44 2.27
2.92 2.94 2.94 2.89 3.01 2.93 2.77 2.64 2.42 2.24 2.11 2.07 2.12 2.13 2.03 2.06 2.29 2.32 2.14 2.05 2.11 2.26 2.43 2.44 2.54 2.84 2.61 2.60 2.38 2.18 1.98 1.79 1.60 1.55 1.73 1.93 1.84 1.79 1.92 2.08 2.30 2.42 2.53
3.15 3.29 3.45 3.46 3.45 3.29 3.28 3.22 2.95 2.72 2.55 2.40 2.34 2.38 2.22 2.15 2.19 2.36 2.17 2.02 2.33 2.37 2.47 2.73 2.84 2.85 2.77 2.79 2.53 2.17 1.92 1.79 1.43 1.33 1.36 1.53 1.74 1.54 1.81 2.05 2.11 2.20 2.48
3.61 3.86 4.00 4.00 3.86 3.60 3.63 3.61 3.45 3.28 2.95 2.59 2.44 2.36 2.21 2.16 2.25 2.50 2.48 2.58 2.62 2.66 2.70 2.57 2.89 2.93 2.81 2.83 2.47 2.19 1.80 1.58 1.40 1.24 1.21 1.21 1.37 1.49 1.59 1.67 1.82 1.94 2.34
4.13 4.52 4.34 4.21 4.39 4.26 4.09 3.94 3.65 3.21 2.79 2.66 2.61 2.42 2.26 2.28 2.36 2.71 2.57 2.58 2.64 2.79 2.85 2.81 2.86 2.85 2.60 2.57 2.29 2.07 1.70 1.31 1.26 1.19 1.06 1.07 1.16 1.18 1.41 1.69 1.86 1.65 1.98
4.17 4.56 4.71 4.70 4.58 4.36 3.95 3.61 3.36 3.14 2.97 2.72 2.55 2.47 2.35 2.24 2.36 2.72 2.60 2.78 2.74 2.73 2.74 2.77 2.82 2.69 2.31 2.49 2.57 2.09 1.56 1.21 1.23 1.03 0.94 1.00 1.07 1.10 1.35 1.65 1.85 1.83 1.67
3.83 4.29 4.57 4.72 4.60 4.20 3.78 3.55 3.40 3.35 2.98 2.68 2.65 2.69 2.52 2.54 2.56 2.58 2.71 2.69 2.73 2.83 2.75 2.70 2.74 2.56 2.17 2.33 2.56 2.61 1.98 1.59 1.24 0.89 0.98 1.09 1.19 1.30 1.35 1.49 1.67 1.84 1.84
3.36 3.67 3.79 3.94 3.90 3.73 3.74 3.74 3.65 3.60 3.14 3.01 3.00 2.97 2.79 2.77 2.76 2.74 2.71 2.61 2.58 2.44 2.45 2.50 2.50 2.50 2.35 2.23 2.45 2.73 2.30 1.82 1.51 1.10 1.05 1.12 1.29 1.50 1.51 1.58 1.61 1.80 1.95
2.91 3.26 3.49 3.54 3.49 3.39 3.48 3.50 3.38 3.16 2.98 3.08 3.34 3.29 3.02 2.78 2.60 2.39 2.29 2.35 2.35 2.21 2.20 1.97 2.06 2.20 2.19 2.02 2.19 2.24 2.25 2.25 2.16 1.57 1.19 1.09 1.24 1.40 1.53 1.45 1.46 1.69 1.99
2.51 2.80 3.05 3.32 3.40 3.34 3.38 3.30 3.30 3.18 3.16 3.19 3.13 3.09 2.85 2.62 2.30 1.99 1.95 2.03 2.03 1.95 1.88 1.82 1.95 1.86 1.79 1.78 1.97 2.13 2.19 2.24 2.17 2.03 1.65 1.56 1.55 1.45 1.40 1.42 1.59 1.73 1.87
2.15 2.27 2.41 2.63 2.90 3.07 3.11 3.08 3.11 3.04 3.01 2.93 2.81 2.65 2.43 2.24 1.97 1.73 1.60 1.72 1.82 1.86 1.83 1.80 1.88 1.77 1.75 1.87 1.84 1.89 2.09 2.11 2.11 2.24 1.93 1.77 1.73 1.51 1.46 1.52 1.57 1.74 1.80